Starlink 30132

operational
NORAD ID: 56703 Int'l Des: 2023-067 Owner: SPXS Country: US Constellation: starlink
LEOCIRCULAR

Starlink 30132について

説明を読み込み中...

リアルタイム位置

3D地球を読み込み中...

次回通過

高度履歴

Altitude vs Time

uPlot chart will show altitude changes over time

軌道要素

1 56703U 23067R 25258.41101522 .00000240 00000-0 32814-4 0 9995
2 56703 43.0035 146.8651 0001114 270.4697 89.6018 15.02537323129297
Epoch: Sep 15, 2025 • Age: 23 hours

現在のステータス

高度 571.3 km
速度 7.58 km/s
衛星直下点 -42.22°S, 98.89°W
打ち上げ日 May 19, 2023
運用期間 2.3 years
タイプ internet

技術仕様

分類 Payload
質量 730.00 kg
乾燥質量 700.00 kg
総質量 730.00 kg
長さ 0.30 m
直径 4.10 m
スパン 29.00 m
形状 Box + pan
製造者 SPXS
バスタイプ Starlink V2M
フェーズステータス In Orbit
所有者/国 SPXS/US

大規模コンステレーション

Loading constellations...